Belmar-Farmingdale, NJ

4:45 AM EDT on September 22, 2017 (GMT -0400)
Allaire

Weather History for KBLM - December, 2013

Change the Weather History Date:

Saturday, December 7, 2013

  Actual Average Record
Temperature  
Mean Temperature 34 °F -  
Max Temperature 41 °F 44 °F 75 °F (1998)
Min Temperature 28 °F 32 °F 15 °F (2002)
Degree Days  
Heating Degree Days 30    
Moisture  
Dew Point 26 °F    
Average Humidity 67    
Maximum Humidity 87    
Minimum Humidity 52    
Precipitation  
Precipitation 0.08 in - - ()
Sea Level Pressure  
Sea Level Pressure 30.31 in    
Wind  
Wind Speed 10 mph (NW)    
Max Wind Speed 20 mph    
Max Gust Speed 26 mph    
Visibility 10 miles    
Events      
Averages and records for this station are not official NWS values.
T = Trace of Precipitation, MM = Missing Value Source: NWS Daily Summary

Daily Weather History Graph

Daily Weather History Graph

Search for Another Location

Airport or City:

Trip Planner

Search our weather history database for the weather conditions in past years. The results will help you decide how hot, cold, wet, or windy it might be!

Date:

Astronomy

Dec. 07, 2013 Rise Set
Actual Time 7:05 AM EST 4:30 PM EST
Civil Twilight 6:35 AM EST 5:00 PM EST
Nautical Twilight 6:01 AM EST 5:34 PM EST
Astronomical Twilight 5:28 AM EST 6:07 PM EST
Moon 10:48 AM EST (12/7) 10:09 PM EST (12/7)
Length of Visible Light 10h 25m
Length of Day
9h 24m
Waxing Crescent, 29% of the Moon is Illuminated
Dec 7
Waxing Crescent
Dec 9
First Quarter
Dec 17
Full
Dec 25
Last Quarter
Jan 1
New

Hourly Weather History & Observations

Time (EST) Temp. Windchill Dew Point Humidity Pressure Visibility Wind Dir Wind Speed Gust Speed Precip Events Conditions
12:15 AM 37.4 °F 30.8 °F 32.0 °F 81% 30.12 in 7.0 mi NNE 9.2 mph 16.1 mph 0.01 in   Overcast
12:35 AM 37.4 °F 32.1 °F 32.0 °F 81% 30.11 in 10.0 mi NNE 6.9 mph - 0.02 in   Overcast
12:55 AM 37.4 °F 30.8 °F 30.2 °F 75% 30.10 in 10.0 mi NNE 9.2 mph - 0.03 in   Overcast
1:15 AM 37.4 °F 31.4 °F 30.2 °F 75% 30.10 in 10.0 mi NNE 8.1 mph - 0.01 in   Overcast
1:35 AM 37.4 °F 31.4 °F 30.2 °F 75% 30.08 in 10.0 mi NE 8.1 mph - 0.02 in   Overcast
1:55 AM 37.4 °F 32.1 °F 32.0 °F 81% 30.11 in 10.0 mi North 6.9 mph - 0.02 in   Overcast
2:15 AM 37.4 °F 30.3 °F 32.0 °F 81% 30.13 in 10.0 mi North 10.4 mph - N/A   Overcast
2:35 AM 37.4 °F 31.4 °F 32.0 °F 81% 30.16 in 10.0 mi NNW 8.1 mph - 0.01 in   Overcast
2:55 AM 37.4 °F 29.8 °F 33.8 °F 87% 30.15 in 7.0 mi North 11.5 mph - 0.03 in   Overcast
3:15 AM 37.4 °F 31.4 °F 32.0 °F 81% 30.16 in 4.0 mi NNW 8.1 mph - N/A   Overcast
3:35 AM 35.6 °F 26.2 °F 30.2 °F 81% 30.16 in 9.0 mi North 15.0 mph - N/A   Overcast
3:55 AM 35.6 °F 27.1 °F 30.2 °F 81% 30.16 in 10.0 mi North 12.7 mph - N/A   Overcast
4:15 AM 35.6 °F 28.0 °F 30.2 °F 81% 30.18 in 10.0 mi North 10.4 mph - N/A   Overcast
4:35 AM 35.6 °F 29.2 °F 30.2 °F 81% 30.18 in 9.0 mi North 8.1 mph - N/A   Mostly Cloudy
4:55 AM 35.6 °F 30.7 °F 30.2 °F 81% 30.18 in 9.0 mi North 5.8 mph - N/A   Overcast
5:15 AM 35.6 °F 30.7 °F 30.2 °F 81% 30.19 in 10.0 mi North 5.8 mph - N/A   Overcast
5:35 AM 35.6 °F 29.2 °F 30.2 °F 81% 30.19 in 10.0 mi North 8.1 mph - N/A   Overcast
5:55 AM 35.6 °F 29.9 °F 30.2 °F 81% 30.20 in 10.0 mi NNW 6.9 mph - N/A   Overcast
6:15 AM 35.6 °F 28.6 °F 30.2 °F 81% 30.22 in 10.0 mi NNW 9.2 mph - N/A   Overcast
6:35 AM 35.6 °F 29.2 °F 30.2 °F 81% 30.22 in 10.0 mi NNW 8.1 mph - N/A   Overcast
6:55 AM 35.6 °F 28.6 °F 30.2 °F 81% 30.24 in 10.0 mi NNW 9.2 mph - N/A   Overcast
7:15 AM 37.4 °F 31.4 °F 30.2 °F 75% 30.24 in 10.0 mi NNW 8.1 mph - N/A   Overcast
7:35 AM 37.4 °F 32.1 °F 30.2 °F 75% 30.25 in 10.0 mi NW 6.9 mph - N/A   Overcast
7:55 AM 37.4 °F 31.4 °F 30.2 °F 75% 30.26 in 10.0 mi NW 8.1 mph - N/A   Overcast
8:15 AM 37.4 °F 30.3 °F 30.2 °F 75% 30.27 in 10.0 mi NW 10.4 mph - N/A   Overcast
8:35 AM 37.4 °F 31.4 °F 30.2 °F 75% 30.28 in 10.0 mi NNW 8.1 mph - N/A   Overcast
8:55 AM 37.4 °F 30.3 °F 30.2 °F 75% 30.29 in 10.0 mi NW 10.4 mph - N/A   Mostly Cloudy
9:15 AM 37.4 °F 29.8 °F 30.2 °F 75% 30.29 in 10.0 mi NW 11.5 mph - N/A   Clear
9:35 AM 37.4 °F 28.9 °F 28.4 °F 70% 30.30 in 10.0 mi NW 13.8 mph - N/A   Clear
9:55 AM 37.4 °F 29.3 °F 28.4 °F 70% 30.31 in 10.0 mi NNW 12.7 mph - N/A   Clear
10:15 AM 37.4 °F 29.8 °F 28.4 °F 70% 30.31 in 10.0 mi NNW 11.5 mph - N/A   Clear
10:35 AM 37.4 °F 29.8 °F 28.4 °F 70% 30.31 in 10.0 mi NNW 11.5 mph - N/A   Clear
10:55 AM 37.4 °F 30.8 °F 28.4 °F 70% 30.31 in 10.0 mi NW 9.2 mph - N/A   Partly Cloudy
11:15 AM 39.2 °F 31.2 °F 26.6 °F 61% 30.30 in 10.0 mi NNW 13.8 mph - N/A   Scattered Clouds
11:35 AM 39.2 °F 31.2 °F 26.6 °F 61% 30.30 in 10.0 mi NW 13.8 mph - N/A   Partly Cloudy
11:55 AM 41.0 °F 33.1 °F 26.6 °F 57% 30.31 in 10.0 mi NW 15.0 mph - N/A   Partly Cloudy
12:15 PM 39.2 °F 30.8 °F 26.6 °F 61% 30.30 in 10.0 mi NNW 15.0 mph 20.7 mph N/A   Clear
12:35 PM 39.2 °F 32.0 °F 26.6 °F 61% 30.30 in 10.0 mi NW 11.5 mph 17.3 mph N/A   Clear
12:55 PM 41.0 °F 33.5 °F 24.8 °F 53% 30.31 in 10.0 mi NNW 13.8 mph - N/A   Clear
1:15 PM 39.2 °F 30.5 °F 24.8 °F 56% 30.31 in 10.0 mi NW 16.1 mph - N/A   Clear
1:35 PM 41.0 °F 32.2 °F 24.8 °F 53% 30.31 in 10.0 mi NW 18.4 mph - N/A   Clear
1:55 PM 41.0 °F 32.8 °F 24.8 °F 53% 30.31 in 10.0 mi NW 16.1 mph 24.2 mph N/A   Partly Cloudy
2:15 PM 41.0 °F 32.5 °F 24.8 °F 53% 30.32 in 10.0 mi NW 17.3 mph 21.9 mph N/A   Partly Cloudy
2:35 PM 39.2 °F 29.6 °F 23.0 °F 52% 30.32 in 10.0 mi NW 19.6 mph 26.5 mph N/A   Clear
2:55 PM 39.2 °F 31.2 °F 23.0 °F 52% 30.33 in 10.0 mi WNW 13.8 mph - N/A   Clear
3:15 PM 39.2 °F 32.0 °F 23.0 °F 52% 30.34 in 10.0 mi WNW 11.5 mph 16.1 mph N/A   Clear
3:35 PM 37.4 °F 30.8 °F 21.2 °F 52% 30.34 in 10.0 mi NW 9.2 mph - N/A   Clear
3:55 PM 37.4 °F 30.8 °F 21.2 °F 52% 30.35 in 10.0 mi WNW 9.2 mph - N/A   Clear
4:15 PM 37.4 °F 30.3 °F 21.2 °F 52% 30.36 in 10.0 mi NW 10.4 mph - N/A   Clear
4:35 PM 37.4 °F 30.3 °F 21.2 °F 52% 30.37 in 10.0 mi NW 10.4 mph - N/A   Clear
4:55 PM 35.6 °F 29.9 °F 21.2 °F 56% 30.38 in 10.0 mi WNW 6.9 mph - N/A   Clear
5:15 PM 35.6 °F 30.7 °F 21.2 °F 56% 30.38 in 10.0 mi WNW 5.8 mph - N/A   Clear
5:35 PM 35.6 °F 27.1 °F 21.2 °F 56% 30.39 in 10.0 mi NW 12.7 mph - N/A   Clear
5:55 PM 35.6 °F 28.6 °F 21.2 °F 56% 30.40 in 10.0 mi WNW 9.2 mph - N/A   Clear
6:15 PM 33.8 °F 25.8 °F 21.2 °F 60% 30.41 in 10.0 mi WNW 10.4 mph - N/A   Clear
6:35 PM 33.8 °F 27.0 °F 19.4 °F 56% 30.42 in 10.0 mi WNW 8.1 mph - N/A   Clear
6:55 PM 33.8 °F 28.6 °F 19.4 °F 56% 30.43 in 10.0 mi West 5.8 mph - N/A   Clear
7:15 PM 33.8 °F 29.6 °F 19.4 °F 56% 30.44 in 10.0 mi West 4.6 mph - N/A   Clear
7:35 PM 33.8 °F 27.7 °F 19.4 °F 56% 30.45 in 10.0 mi West 6.9 mph - N/A   Clear
7:55 PM 32.0 °F 25.6 °F 19.4 °F 60% 30.46 in 10.0 mi WNW 6.9 mph - N/A   Clear
8:15 PM 32.0 °F 24.2 °F 19.4 °F 60% 30.46 in 10.0 mi WNW 9.2 mph - N/A   Clear
8:35 PM 32.0 °F 25.6 °F 19.4 °F 60% 30.47 in 10.0 mi WNW 6.9 mph - N/A   Clear
8:55 PM 32.0 °F 24.8 °F 19.4 °F 60% 30.47 in 10.0 mi NW 8.1 mph - N/A   Clear
9:15 PM 30.2 °F 23.4 °F 19.4 °F 64% 30.47 in 10.0 mi NW 6.9 mph - N/A   Clear
9:35 PM 30.2 °F 23.4 °F 19.4 °F 64% 30.47 in 10.0 mi NW 6.9 mph - N/A   Clear
9:55 PM 30.2 °F 21.3 °F 19.4 °F 64% 30.48 in 10.0 mi NW 10.4 mph - N/A   Clear
10:15 PM 30.2 °F 21.9 °F 19.4 °F 64% 30.48 in 10.0 mi NNW 9.2 mph - N/A   Clear
10:35 PM 30.2 °F 21.9 °F 17.6 °F 60% 30.49 in 10.0 mi NNW 9.2 mph - N/A   Clear
10:55 PM 30.2 °F 23.4 °F 17.6 °F 60% 30.49 in 10.0 mi NNW 6.9 mph - N/A   Clear
11:15 PM 30.2 °F 22.6 °F 17.6 °F 60% 30.51 in 10.0 mi NW 8.1 mph - N/A   Clear
11:35 PM 28.4 °F 22.2 °F 17.6 °F 64% 30.50 in 10.0 mi NW 5.8 mph - N/A   Clear
11:55 PM 28.4 °F 22.2 °F 17.6 °F 64% 30.50 in 10.0 mi NNW 5.8 mph - N/A   Clear